Total_Precipitation_Accumulation
0.93 1.03 1.06 0.85 0.61 0.49 0.47 0.45 0.44 0.47 0.52 0.60 0.55 0.52 0.58 0.62 0.59 0.68 0.78 0.89 0.98 1.03 1.04 1.08 1.15 1.21 1.30 1.35 1.46 1.54 1.56 1.49 1.23 1.11 0.95 0.83 0.86 0.87 0.88 0.84 0.91 0.93 0.85
0.80 0.79 0.65 0.47 0.37 0.34 0.30 0.25 0.22 0.22 0.22 0.29 0.32 0.32 0.40 0.51 0.52 0.58 0.63 0.65 0.71 0.75 0.78 0.85 0.91 0.97 1.07 1.14 1.21 1.30 1.42 1.46 1.35 1.20 1.06 0.93 0.83 0.85 1.00 1.06 1.06 0.99 0.96
0.44 0.42 0.39 0.32 0.30 0.26 0.21 0.19 0.17 0.16 0.16 0.20 0.23 0.26 0.29 0.39 0.50 0.56 0.58 0.54 0.53 0.52 0.52 0.56 0.65 0.74 0.86 0.94 0.99 1.07 1.21 1.26 1.34 1.24 1.17 1.08 0.92 0.85 0.98 1.00 1.09 1.27 1.18
0.25 0.23 0.22 0.23 0.23 0.23 0.23 0.23 0.18 0.14 0.16 0.15 0.14 0.16 0.24 0.34 0.43 0.51 0.55 0.52 0.49 0.49 0.49 0.50 0.53 0.54 0.60 0.71 0.85 1.03 1.18 1.30 1.35 1.29 1.24 1.20 1.11 1.00 1.06 1.13 1.22 1.32 1.37
0.15 0.16 0.18 0.18 0.18 0.18 0.20 0.20 0.17 0.14 0.12 0.08 0.06 0.08 0.16 0.22 0.26 0.40 0.46 0.45 0.48 0.45 0.47 0.51 0.52 0.49 0.48 0.52 0.53 0.71 0.92 1.14 1.27 1.33 1.33 1.34 1.27 1.18 1.08 1.14 1.27 1.42 1.53
0.03 0.05 0.08 0.11 0.13 0.15 0.15 0.15 0.13 0.11 0.09 0.07 0.05 0.05 0.07 0.08 0.14 0.21 0.30 0.40 0.47 0.50 0.51 0.54 0.52 0.47 0.51 0.49 0.48 0.50 0.61 0.74 0.91 1.05 1.14 1.20 1.23 1.30 1.36 1.37 1.40 1.47 1.54
0.01 0.01 0.02 0.03 0.04 0.05 0.05 0.06 0.05 0.04 0.04 0.04 0.04 0.04 0.04 0.04 0.05 0.08 0.18 0.34 0.48 0.49 0.47 0.61 0.67 0.60 0.59 0.63 0.64 0.57 0.51 0.50 0.63 0.81 0.94 0.99 1.06 1.17 1.36 1.42 1.44 1.45 1.36
0.00 0.00 0.01 0.01 0.02 0.02 0.02 0.02 0.02 0.02 0.02 0.03 0.05 0.07 0.05 0.02 0.02 0.03 0.09 0.24 0.39 0.43 0.43 0.55 0.79 0.84 0.73 0.69 0.73 0.82 0.74 0.58 0.56 0.61 0.75 0.86 0.90 1.05 1.37 1.59 1.56 1.35 1.27
0.00 0.00 0.00 0.01 0.01 0.01 0.01 0.01 0.01 0.01 0.03 0.03 0.04 0.06 0.05 0.04 0.04 0.04 0.08 0.19 0.29 0.33 0.37 0.49 0.65 0.80 0.74 0.70 0.70 0.77 0.80 0.70 0.63 0.63 0.59 0.66 0.78 0.95 1.20 1.44 1.54 1.48 1.33
0.00 0.00 0.00 0.00 0.01 0.02 0.01 0.01 0.01 0.02 0.03 0.03 0.03 0.03 0.03 0.02 0.04 0.05 0.07 0.13 0.17 0.17 0.23 0.40 0.55 0.55 0.51 0.57 0.68 0.79 0.88 0.72 0.62 0.69 0.69 0.71 0.73 0.91 1.22 1.41 1.49 1.45 1.34
0.00 0.00 0.01 0.01 0.01 0.02 0.03 0.02 0.02 0.02 0.03 0.03 0.04 0.04 0.04 0.03 0.04 0.05 0.08 0.10 0.12 0.12 0.17 0.31 0.40 0.37 0.36 0.43 0.54 0.68 0.81 0.66 0.68 0.82 0.86 0.84 0.91 0.96 1.08 1.20 1.36 1.44 1.34
0.00 0.01 0.01 0.01 0.01 0.02 0.03 0.02 0.02 0.02 0.03 0.05 0.07 0.08 0.08 0.08 0.06 0.06 0.08 0.10 0.11 0.13 0.19 0.25 0.29 0.25 0.25 0.29 0.35 0.47 0.58 0.65 0.73 0.86 0.94 0.91 0.86 0.93 0.98 1.01 1.10 1.20 1.16
0.00 0.01 0.01 0.01 0.01 0.01 0.02 0.02 0.02 0.02 0.03 0.05 0.08 0.10 0.11 0.12 0.09 0.06 0.06 0.08 0.11 0.14 0.17 0.21 0.22 0.22 0.25 0.27 0.29 0.37 0.51 0.70 0.86 0.86 0.80 0.77 0.80 0.86 0.86 0.96 1.04 1.08 1.08
0.00 0.00 0.00 0.01 0.01 0.02 0.01 0.01 0.02 0.02 0.03 0.04 0.06 0.08 0.09 0.12 0.08 0.07 0.09 0.11 0.12 0.16 0.18 0.18 0.18 0.23 0.26 0.26 0.32 0.43 0.58 0.78 0.85 0.77 0.72 0.62 0.65 0.80 0.84 0.84 0.88 0.91 0.96
0.00 0.00 0.00 0.00 0.01 0.03 0.02 0.01 0.01 0.01 0.02 0.03 0.05 0.07 0.06 0.06 0.07 0.07 0.09 0.11 0.12 0.12 0.16 0.23 0.27 0.33 0.38 0.45 0.55 0.62 0.63 0.67 0.73 0.65 0.68 0.62 0.60 0.67 0.71 0.70 0.71 0.68 0.69
0.00 0.00 0.00 0.00 0.01 0.02 0.03 0.02 0.02 0.02 0.02 0.02 0.02 0.04 0.06 0.04 0.05 0.06 0.08 0.09 0.09 0.11 0.20 0.28 0.36 0.44 0.49 0.57 0.62 0.63 0.62 0.63 0.66 0.62 0.61 0.60 0.55 0.55 0.57 0.58 0.60 0.62 0.66
0.00 0.00 0.01 0.01 0.01 0.02 0.02 0.04 0.05 0.04 0.02 0.02 0.02 0.03 0.04 0.04 0.04 0.06 0.07 0.08 0.09 0.12 0.18 0.29 0.48 0.53 0.51 0.57 0.61 0.60 0.51 0.44 0.45 0.46 0.45 0.43 0.41 0.42 0.46 0.47 0.48 0.52 0.54
0.00 0.00 0.01 0.01 0.01 0.02 0.02 0.03 0.04 0.05 0.06 0.06 0.04 0.04 0.04 0.05 0.06 0.06 0.07 0.10 0.10 0.11 0.13 0.21 0.34 0.38 0.41 0.47 0.47 0.45 0.38 0.31 0.30 0.30 0.30 0.31 0.31 0.33 0.34 0.37 0.36 0.35 0.40
0.00 0.01 0.01 0.01 0.02 0.02 0.03 0.03 0.03 0.03 0.04 0.05 0.06 0.05 0.05 0.07 0.07 0.07 0.07 0.09 0.10 0.12 0.14 0.19 0.23 0.27 0.28 0.27 0.28 0.29 0.28 0.29 0.28 0.27 0.28 0.29 0.30 0.30 0.28 0.27 0.29 0.31 0.30
0.01 0.02 0.02 0.02 0.02 0.02 0.03 0.04 0.04 0.04 0.05 0.05 0.06 0.07 0.09 0.10 0.10 0.10 0.09 0.10 0.11 0.12 0.13 0.15 0.17 0.17 0.18 0.19 0.20 0.23 0.25 0.29 0.30 0.29 0.27 0.28 0.30 0.30 0.28 0.26 0.24 0.24 0.25
0.01 0.02 0.03 0.03 0.03 0.03 0.04 0.05 0.05 0.06 0.07 0.07 0.07 0.09 0.10 0.11 0.13 0.14 0.14 0.14 0.14 0.14 0.15 0.14 0.15 0.16 0.17 0.19 0.22 0.24 0.24 0.28 0.31 0.30 0.30 0.30 0.31 0.31 0.30 0.29 0.28 0.26 0.25
0.02 0.02 0.03 0.03 0.04 0.04 0.05 0.05 0.06 0.06 0.07 0.08 0.09 0.11 0.12 0.13 0.14 0.16 0.16 0.15 0.15 0.16 0.17 0.17 0.17 0.17 0.20 0.22 0.24 0.26 0.27 0.30 0.32 0.33 0.32 0.32 0.33 0.33 0.32 0.31 0.31 0.31 0.29
0.02 0.02 0.03 0.04 0.05 0.05 0.06 0.06 0.07 0.07 0.09 0.09 0.11 0.12 0.14 0.15 0.16 0.16 0.16 0.15 0.16 0.17 0.18 0.19 0.19 0.18 0.20 0.23 0.26 0.28 0.29 0.31 0.35 0.39 0.40 0.38 0.36 0.35 0.33 0.32 0.32 0.32 0.31
0.02 0.02 0.03 0.04 0.05 0.06 0.06 0.06 0.07 0.08 0.09 0.10 0.11 0.13 0.14 0.16 0.17 0.18 0.17 0.16 0.16 0.17 0.18 0.20 0.20 0.19 0.20 0.22 0.26 0.29 0.31 0.32 0.36 0.41 0.47 0.47 0.42 0.37 0.36 0.33 0.31 0.31 0.33
0.02 0.02 0.03 0.04 0.05 0.07 0.07 0.08 0.09 0.09 0.10 0.11 0.13 0.14 0.14 0.14 0.15 0.17 0.18 0.18 0.17 0.17 0.18 0.21 0.23 0.23 0.23 0.24 0.27 0.30 0.35 0.36 0.37 0.39 0.45 0.50 0.47 0.43 0.40 0.37 0.34 0.32 0.32
0.01 0.02 0.04 0.05 0.06 0.07 0.08 0.09 0.10 0.11 0.12 0.13 0.14 0.15 0.16 0.16 0.16 0.16 0.17 0.18 0.17 0.16 0.17 0.19 0.21 0.23 0.23 0.24 0.27 0.32 0.37 0.35 0.36 0.38 0.41 0.46 0.49 0.47 0.46 0.44 0.40 0.37 0.36